TimeCST,TemperatureF,Dew PointF,Humidity,Sea Level PressureIn,VisibilityMPH,Wind Direction,Wind SpeedMPH,Gust SpeedMPH,PrecipitationIn,Events,Conditions,WindDirDegrees,DateUTC
12:15 AM,19.4,17.6,93,30.13,10.0,Calm,Calm,-,N/A,,Clear,0,2012-12-11 06:15:00
12:35 AM,19.4,17.6,93,30.13,10.0,Calm,Calm,-,N/A,,Clear,0,2012-12-11 06:35:00
12:55 AM,19.4,17.6,93,30.13,10.0,Calm,Calm,-,N/A,,Clear,0,2012-12-11 06:55:00
1:15 AM,19.4,17.6,93,30.12,10.0,Calm,Calm,-,N/A,,Clear,0,2012-12-11 07:15:00
1:35 AM,17.6,15.8,93,30.11,10.0,Calm,Calm,-,N/A,,Clear,0,2012-12-11 07:35:00
1:55 AM,17.6,17.6,100,30.11,5.0,Calm,Calm,-,N/A,,Clear,0,2012-12-11 07:55:00
2:15 AM,17.6,15.8,93,30.11,7.0,Calm,Calm,-,N/A,,Clear,0,2012-12-11 08:15:00
2:35 AM,17.6,15.8,93,30.12,10.0,Calm,Calm,-,N/A,,Clear,0,2012-12-11 08:35:00
2:55 AM,15.8,15.8,100,30.11,10.0,Calm,Calm,-,N/A,,Clear,0,2012-12-11 08:55:00
3:15 AM,15.8,15.8,100,30.11,10.0,Calm,Calm,-,N/A,,Clear,0,2012-12-11 09:15:00
3:35 AM,15.8,15.8,100,30.12,10.0,Calm,Calm,-,N/A,,Clear,0,2012-12-11 09:35:00
3:55 AM,17.6,14.0,86,30.11,10.0,Calm,Calm,-,N/A,,Clear,0,2012-12-11 09:55:00
4:15 AM,14.0,14.0,100,30.12,10.0,Calm,Calm,-,N/A,,Clear,0,2012-12-11 10:15:00
4:35 AM,15.8,14.0,93,30.12,10.0,Calm,Calm,-,N/A,,Clear,0,2012-12-11 10:35:00
4:55 AM,14.0,14.0,100,30.12,10.0,Calm,Calm,-,N/A,,Clear,0,2012-12-11 10:55:00
5:15 AM,15.8,14.0,93,30.12,10.0,Calm,Calm,-,N/A,,Clear,0,2012-12-11 11:15:00
5:35 AM,14.0,12.2,93,30.12,10.0,Calm,Calm,-,N/A,,Clear,0,2012-12-11 11:35:00
8:55 AM,23.0,21.2,93,30.18,10.0,Calm,Calm,-,N/A,,Clear,0,2012-12-11 14:55:00
10:55 AM,41.0,19.4,42,30.21,10.0,South,3.5,-,N/A,,Clear,170,2012-12-11 16:55:00
12:55 PM,48.2,17.6,30,30.17,10.0,WSW,4.6,-,N/A,,Clear,240,2012-12-11 18:55:00
4:55 PM,46.4,14.0,27,30.14,10.0,SE,3.5,-,N/A,,Clear,130,2012-12-11 22:55:00
10:35 PM,23.0,21.2,93,30.23,10.0,Calm,Calm,-,N/A,,Clear,0,2012-12-12 04:35:00
10:55 PM,23.0,17.6,80,30.23,10.0,Calm,Calm,-,N/A,,Clear,0,2012-12-12 04:55:00
11:15 PM,21.2,19.4,93,30.23,10.0,Calm,Calm,-,N/A,,Clear,0,2012-12-12 05:15:00
11:35 PM,21.2,19.4,93,30.23,10.0,Calm,Calm,-,N/A,,Clear,0,2012-12-12 05:35:00
11:55 PM,21.2,19.4,93,30.23,10.0,Calm,Calm,-,N/A,,Clear,0,2012-12-12 05:55:00